Time,TemperatureF,DewpointF,PressureIn,WindDirection,WindDirectionDegrees,WindSpeedMPH,WindSpeedGustMPH,Humidity,HourlyPrecipIn,Conditions,Clouds,dailyrainin,SoftwareType,DateUTC
2013-01-23 00:03:00,49.5,35.3,30.05,WNW,300,0.0,0.0,58,0.00,,CLR,0.00,VWS V14.01,2013-01-23 08:03:00,
2013-01-23 00:08:00,49.9,35.3,30.05,WNW,300,0.0,0.0,57,0.00,,CLR,0.00,VWS V14.01,2013-01-23 08:08:00,
2013-01-23 00:13:00,50.2,35.6,30.05,WNW,300,0.0,1.0,57,0.00,,CLR,0.00,VWS V14.01,2013-01-23 08:13:00,
2013-01-23 00:18:00,50.2,36.0,30.05,WNW,300,0.0,1.0,58,0.00,,CLR,0.00,VWS V14.01,2013-01-23 08:18:00,
2013-01-23 00:23:00,50.1,35.9,30.05,WNW,300,0.0,1.0,58,0.00,,CLR,0.00,VWS V14.01,2013-01-23 08:23:00,
2013-01-23 00:28:00,50.0,35.8,30.05,WNW,300,0.0,1.0,58,0.00,,CLR,0.00,VWS V14.01,2013-01-23 08:28:00,
2013-01-23 00:33:00,49.8,35.6,30.04,North,354,0.0,1.0,58,0.00,,CLR,0.00,VWS V14.01,2013-01-23 08:33:00,
2013-01-23 00:39:00,49.9,35.3,30.04,North,354,0.0,1.0,57,0.00,,CLR,0.00,VWS V14.01,2013-01-23 08:39:00,
2013-01-23 00:44:00,50.0,35.4,30.04,North,354,0.0,1.0,57,0.00,,CLR,0.00,VWS V14.01,2013-01-23 08:44:00,
2013-01-23 00:49:00,50.0,36.2,30.04,North,354,0.0,1.0,59,0.00,,CLR,0.00,VWS V14.01,2013-01-23 08:49:00,
2013-01-23 00:54:00,49.7,36.0,30.04,NW,318,0.0,1.0,59,0.00,,CLR,0.00,VWS V14.01,2013-01-23 08:54:00,
2013-01-23 00:59:00,49.8,35.6,30.04,NW,317,0.0,1.0,58,0.00,,CLR,0.00,VWS V14.01,2013-01-23 08:59:00,
2013-01-23 01:04:00,50.0,35.8,30.04,NW,317,0.0,0.0,58,0.00,,CLR,0.00,VWS V14.01,2013-01-23 09:04:00,
2013-01-23 01:09:00,50.2,35.6,30.04,NW,318,0.0,0.0,57,0.00,,CLR,0.00,VWS V14.01,2013-01-23 09:09:00,
2013-01-23 01:14:00,50.5,35.4,30.04,North,360,0.0,1.0,56,0.00,,CLR,0.00,VWS V14.01,2013-01-23 09:14:00,
2013-01-23 01:19:00,50.8,35.7,30.04,North,8,0.0,1.0,56,0.00,,CLR,0.00,VWS V14.01,2013-01-23 09:19:00,
2013-01-23 01:24:00,50.8,35.2,30.03,NNW,335,0.0,1.0,55,0.00,,CLR,0.00,VWS V14.01,2013-01-23 09:24:00,
2013-01-23 01:29:00,50.8,35.2,30.04,NNW,334,0.0,1.0,55,0.00,,CLR,0.00,VWS V14.01,2013-01-23 09:29:00,
2013-01-23 01:34:00,50.7,35.6,30.04,NNW,333,0.0,1.0,56,0.00,,CLR,0.00,VWS V14.01,2013-01-23 09:34:00,
2013-01-23 01:39:00,50.7,35.6,30.04,NNW,333,0.0,1.0,56,0.00,,CLR,0.00,VWS V14.01,2013-01-23 09:39:00,
2013-01-23 01:44:00,50.5,35.4,30.04,NNW,333,0.0,1.0,56,0.00,,CLR,0.00,VWS V14.01,2013-01-23 09:44:00,
2013-01-23 01:49:00,50.5,35.0,30.04,NNW,333,0.0,1.0,55,0.00,,CLR,0.00,VWS V14.01,2013-01-23 09:49:00,
2013-01-23 01:54:00,50.6,35.5,30.04,NNW,333,0.0,1.0,56,0.00,,CLR,0.00,VWS V14.01,2013-01-23 09:54:00,
2013-01-23 01:59:00,50.5,35.8,30.04,NNW,333,0.0,1.0,57,0.00,,CLR,0.00,VWS V14.01,2013-01-23 09:59:00,
2013-01-23 02:04:00,50.2,35.6,30.04,NNW,333,0.0,0.0,57,0.00,,CLR,0.00,VWS V14.01,2013-01-23 10:04:00,
2013-01-23 02:09:00,50.3,35.7,30.04,NNW,333,0.0,0.0,57,0.00,,CLR,0.00,VWS V14.01,2013-01-23 10:09:00,
2013-01-23 02:14:00,50.4,35.8,30.04,NNW,335,0.0,0.0,57,0.00,,CLR,0.00,VWS V14.01,2013-01-23 10:14:00,
2013-01-23 02:19:00,50.3,36.1,30.04,NNW,335,0.0,0.0,58,0.00,,CLR,0.00,VWS V14.01,2013-01-23 10:19:00,
2013-01-23 02:24:00,50.2,36.4,30.03,NNE,18,0.0,1.0,59,0.00,,CLR,0.00,VWS V14.01,2013-01-23 10:24:00,
2013-01-23 02:29:00,49.9,36.6,30.03,NNE,17,0.0,1.0,60,0.00,,CLR,0.00,VWS V14.01,2013-01-23 10:29:00,
2013-01-23 02:34:00,49.6,37.1,30.03,NNE,18,0.0,0.0,62,0.00,,CLR,0.00,VWS V14.01,2013-01-23 10:34:00,
2013-01-23 02:39:00,49.4,37.3,30.03,NNE,18,0.0,1.0,63,0.00,,CLR,0.00,VWS V14.01,2013-01-23 10:39:00,
2013-01-23 02:44:00,49.3,37.2,30.03,NNE,18,0.0,1.0,63,0.00,,CLR,0.00,VWS V14.01,2013-01-23 10:44:00,
2013-01-23 02:49:00,49.4,36.9,30.03,NNW,328,0.0,1.0,62,0.00,,CLR,0.00,VWS V14.01,2013-01-23 10:49:00,
2013-01-23 02:54:00,49.8,36.9,30.03,WNW,298,0.0,2.0,61,0.00,,CLR,0.00,VWS V14.01,2013-01-23 10:54:00,
2013-01-23 02:59:00,50.1,36.8,30.03,NNE,12,0.0,2.0,60,0.00,,CLR,0.00,VWS V14.01,2013-01-23 10:59:00,
2013-01-23 03:04:00,50.5,37.2,30.02,NE,37,0.0,1.0,60,0.00,,FEW120,0.00,VWS V14.01,2013-01-23 11:04:00,
2013-01-23 03:10:00,49.8,38.5,30.02,NE,40,0.0,2.0,65,0.00,,FEW120,0.00,VWS V14.01,2013-01-23 11:10:00,
2013-01-23 03:15:00,48.9,38.4,30.02,NE,35,0.0,2.0,67,0.00,,FEW120,0.00,VWS V14.01,2013-01-23 11:15:00,
2013-01-23 03:20:00,48.6,38.9,30.03,NE,37,0.0,2.0,69,0.00,,FEW120,0.00,VWS V14.01,2013-01-23 11:20:00,
2013-01-23 03:25:00,48.1,38.8,30.02,NNE,30,4.0,5.0,70,0.00,,FEW120,0.00,VWS V14.01,2013-01-23 11:25:00,
2013-01-23 03:30:00,47.5,38.6,30.01,North,359,0.0,5.0,71,0.00,,FEW120,0.00,VWS V14.01,2013-01-23 11:30:00,
2013-01-23 03:35:00,47.4,38.1,30.01,North,360,0.0,1.0,70,0.00,,FEW120,0.00,VWS V14.01,2013-01-23 11:35:00,
2013-01-23 03:40:00,47.5,38.2,30.01,NNE,32,2.0,2.0,70,0.00,,FEW120,0.00,VWS V14.01,2013-01-23 11:40:00,
2013-01-23 03:45:00,47.6,38.3,30.00,West,278,1.0,2.0,70,0.00,,FEW120,0.00,VWS V14.01,2013-01-23 11:45:00,
2013-01-23 03:50:00,47.5,38.2,30.01,WNW,293,2.0,3.0,70,0.00,,FEW120,0.00,VWS V14.01,2013-01-23 11:50:00,
2013-01-23 03:55:00,47.7,38.0,30.02,NW,307,0.0,4.0,69,0.00,,FEW120,0.00,VWS V14.01,2013-01-23 11:55:00,
2013-01-23 04:00:00,47.7,38.0,30.02,NW,315,0.0,4.0,69,0.00,,FEW120,0.00,VWS V14.01,2013-01-23 12:00:00,
2013-01-23 04:05:00,47.6,38.3,30.02,NNE,25,1.0,2.0,70,0.00,,CLR,0.00,VWS V14.01,2013-01-23 12:05:00,
2013-01-23 04:10:00,47.5,38.2,30.02,North,6,0.0,2.0,70,0.00,,CLR,0.00,VWS V14.01,2013-01-23 12:10:00,
2013-01-23 04:15:00,47.5,38.2,30.01,NNE,23,0.0,2.0,70,0.00,,CLR,0.00,VWS V14.01,2013-01-23 12:15:00,
2013-01-23 04:20:00,47.3,38.0,30.00,NE,37,1.0,4.0,70,0.00,,CLR,0.00,VWS V14.01,2013-01-23 12:20:00,
2013-01-23 04:25:00,47.3,38.0,30.01,NW,314,0.0,4.0,70,0.00,,CLR,0.00,VWS V14.01,2013-01-23 12:25:00,
2013-01-23 04:30:00,47.4,37.4,30.00,North,356,2.0,4.0,68,0.00,,CLR,0.00,VWS V14.01,2013-01-23 12:30:00,
2013-01-23 04:35:00,47.7,37.3,30.00,North,8,0.0,2.0,67,0.00,,CLR,0.00,VWS V14.01,2013-01-23 12:35:00,
2013-01-23 04:40:00,47.8,37.0,30.00,NNE,18,0.0,2.0,66,0.00,,CLR,0.00,VWS V14.01,2013-01-23 12:40:00,
2013-01-23 04:45:00,48.0,37.2,30.00,NNE,18,0.0,3.0,66,0.00,,CLR,0.00,VWS V14.01,2013-01-23 12:45:00,
2013-01-23 04:50:00,48.0,36.8,30.00,NNE,12,1.0,3.0,65,0.00,,CLR,0.00,VWS V14.01,2013-01-23 12:50:00,
2013-01-23 04:55:00,48.1,36.9,30.00,North,357,0.0,3.0,65,0.00,,CLR,0.00,VWS V14.01,2013-01-23 12:55:00,
2013-01-23 05:00:00,48.2,36.6,30.00,North,9,0.0,3.0,64,0.00,,CLR,0.00,VWS V14.01,2013-01-23 13:00:00,
2013-01-23 05:05:00,48.2,36.6,30.00,WNW,290,0.0,1.0,64,0.00,,CLR,0.00,VWS V14.01,2013-01-23 13:05:00,
2013-01-23 05:10:00,48.1,36.9,30.00,NNW,341,0.0,1.0,65,0.00,,CLR,0.00,VWS V14.01,2013-01-23 13:10:00,
2013-01-23 05:15:00,48.1,36.9,30.00,NNW,346,0.0,1.0,65,0.00,,CLR,0.00,VWS V14.01,2013-01-23 13:15:00,
2013-01-23 05:20:00,48.1,36.9,30.00,NNW,346,0.0,2.0,65,0.00,,CLR,0.00,VWS V14.01,2013-01-23 13:20:00,
2013-01-23 05:25:00,48.2,36.6,30.00,NW,318,0.0,2.0,64,0.00,,CLR,0.00,VWS V14.01,2013-01-23 13:25:00,
2013-01-23 05:30:00,48.3,36.7,29.99,North,1,1.0,3.0,64,0.00,,CLR,0.00,VWS V14.01,2013-01-23 13:30:00,
2013-01-23 05:35:00,48.5,36.9,29.98,NNE,26,0.0,3.0,64,0.00,,CLR,0.00,VWS V14.01,2013-01-23 13:35:00,
2013-01-23 05:40:00,48.6,36.6,29.98,NNW,340,1.0,3.0,63,0.00,,CLR,0.00,VWS V14.01,2013-01-23 13:40:00,
2013-01-23 05:45:00,48.6,36.6,29.98,NNE,13,1.0,3.0,63,0.00,,CLR,0.00,VWS V14.01,2013-01-23 13:45:00,
2013-01-23 05:50:00,48.5,36.9,29.98,North,8,0.0,3.0,64,0.00,,CLR,0.00,VWS V14.01,2013-01-23 13:50:00,
2013-01-23 05:55:00,48.4,36.8,29.98,NNE,29,0.0,3.0,64,0.00,,CLR,0.00,VWS V14.01,2013-01-23 13:55:00,
2013-01-23 06:00:00,48.3,36.7,29.99,NNE,19,0.0,3.0,64,0.00,,CLR,0.00,VWS V14.01,2013-01-23 14:00:00,
2013-01-23 06:05:00,48.2,37.0,29.99,NNE,24,0.0,1.0,65,0.00,,CLR,0.00,VWS V14.01,2013-01-23 14:05:00,
2013-01-23 06:10:00,48.1,36.9,29.99,NNE,32,0.0,1.0,65,0.00,,CLR,0.00,VWS V14.01,2013-01-23 14:10:00,
2013-01-23 06:15:00,48.0,36.8,29.99,WNW,300,0.0,2.0,65,0.00,,CLR,0.00,VWS V14.01,2013-01-23 14:15:00,
2013-01-23 06:20:00,48.1,36.9,30.00,NW,307,0.0,2.0,65,0.00,,CLR,0.00,VWS V14.01,2013-01-23 14:20:00,
2013-01-23 06:25:00,48.2,37.0,30.00,NNE,23,1.0,2.0,65,0.00,,CLR,0.00,VWS V14.01,2013-01-23 14:25:00,
2013-01-23 06:30:00,48.4,36.8,30.00,North,11,0.0,2.0,64,0.00,,CLR,0.00,VWS V14.01,2013-01-23 14:30:00,
2013-01-23 06:35:00,48.8,36.8,30.00,North,4,0.0,2.0,63,0.00,,CLR,0.00,VWS V14.01,2013-01-23 14:35:00,
2013-01-23 06:40:00,49.1,37.1,30.00,North,5,0.0,2.0,63,0.00,,CLR,0.00,VWS V14.01,2013-01-23 14:40:00,
2013-01-23 06:45:00,49.2,37.2,30.00,NNE,18,1.0,2.0,63,0.00,,CLR,0.00,VWS V14.01,2013-01-23 14:45:00,
2013-01-23 06:50:00,49.2,37.2,30.00,NNE,16,0.0,2.0,63,0.00,,CLR,0.00,VWS V14.01,2013-01-23 14:50:00,
2013-01-23 06:55:00,49.1,37.1,30.00,NNE,15,0.0,2.0,63,0.00,,CLR,0.00,VWS V14.01,2013-01-23 14:55:00,
2013-01-23 07:00:00,49.1,37.1,30.00,North,356,0.0,2.0,63,0.00,,CLR,0.00,VWS V14.01,2013-01-23 15:00:00,
2013-01-23 07:05:00,49.0,37.0,30.00,North,4,0.0,1.0,63,0.00,,CLR,0.00,VWS V14.01,2013-01-23 15:05:00,
2013-01-23 07:10:00,49.0,37.0,30.00,North,11,0.0,1.0,63,0.00,,CLR,0.00,VWS V14.01,2013-01-23 15:10:00,
2013-01-23 07:15:00,48.9,37.3,30.00,NNE,12,0.0,1.0,64,0.00,,CLR,0.00,VWS V14.01,2013-01-23 15:15:00,
2013-01-23 07:20:00,49.0,37.4,30.00,NNE,12,0.0,1.0,64,0.00,,CLR,0.00,VWS V14.01,2013-01-23 15:20:00,
2013-01-23 07:25:00,48.9,37.3,30.00,NNE,12,0.0,1.0,64,0.00,,CLR,0.00,VWS V14.01,2013-01-23 15:25:00,
2013-01-23 07:30:00,48.9,37.3,30.00,NW,326,0.0,1.0,64,0.00,,CLR,0.00,VWS V14.01,2013-01-23 15:30:00,
2013-01-23 07:35:00,49.0,37.0,30.00,NW,326,0.0,1.0,63,0.00,,CLR,0.00,VWS V14.01,2013-01-23 15:35:00,
2013-01-23 07:40:00,49.1,37.1,30.00,NNW,333,0.0,1.0,63,0.00,,CLR,0.00,VWS V14.01,2013-01-23 15:40:00,
2013-01-23 07:45:00,49.3,36.8,30.00,NNE,16,0.0,1.0,62,0.00,,CLR,0.00,VWS V14.01,2013-01-23 15:45:00,
2013-01-23 07:50:00,49.5,37.0,30.00,North,4,0.0,1.0,62,0.00,,CLR,0.00,VWS V14.01,2013-01-23 15:50:00,
2013-01-23 07:55:00,49.6,36.7,30.00,North,360,0.0,1.0,61,0.00,,CLR,0.00,VWS V14.01,2013-01-23 15:55:00,
2013-01-23 08:00:00,49.7,37.2,30.00,NW,311,0.0,1.0,62,0.00,,FEW075,0.00,VWS V14.01,2013-01-23 16:00:00,
2013-01-23 08:05:00,49.8,36.9,30.00,North,357,0.0,0.0,61,0.00,,FEW075,0.00,VWS V14.01,2013-01-23 16:05:00,
2013-01-23 08:10:00,49.9,37.0,30.00,North,4,0.0,1.0,61,0.00,,FEW075,0.00,VWS V14.01,2013-01-23 16:10:00,
2013-01-23 08:15:00,49.9,37.0,30.00,NNW,335,0.0,1.0,61,0.00,,FEW075,0.00,VWS V14.01,2013-01-23 16:15:00,
2013-01-23 08:20:00,50.0,37.1,30.01,NNW,337,0.0,1.0,61,0.00,,FEW075,0.00,VWS V14.01,2013-01-23 16:20:00,
2013-01-23 08:25:00,50.2,37.3,30.00,North,1,0.0,1.0,61,0.00,,FEW075,0.00,VWS V14.01,2013-01-23 16:25:00,
2013-01-23 08:30:00,50.4,37.5,30.01,NNE,20,0.0,1.0,61,0.00,,FEW075,0.00,VWS V14.01,2013-01-23 16:30:00,
2013-01-23 08:35:00,50.4,37.9,30.01,NNE,20,0.0,0.0,62,0.00,,FEW075,0.00,VWS V14.01,2013-01-23 16:35:00,
2013-01-23 08:40:00,50.4,37.9,30.02,NNE,20,0.0,0.0,62,0.00,,FEW075,0.00,VWS V14.01,2013-01-23 16:40:00,
2013-01-23 08:45:00,50.4,37.9,30.02,NNE,20,0.0,0.0,62,0.00,,FEW075,0.00,VWS V14.01,2013-01-23 16:45:00,
2013-01-23 08:50:00,50.5,38.0,30.02,NNE,20,0.0,0.0,62,0.00,,FEW075,0.00,VWS V14.01,2013-01-23 16:50:00,
2013-01-23 08:55:00,50.5,38.4,30.02,NNE,21,0.0,0.0,63,0.00,,FEW075,0.00,VWS V14.01,2013-01-23 16:55:00,
2013-01-23 09:00:00,50.5,38.0,30.03,NNE,20,0.0,0.0,62,0.00,,CLR,0.00,VWS V14.01,2013-01-23 17:00:00,
2013-01-23 09:05:00,50.6,38.1,30.03,NNE,20,0.0,0.0,62,0.00,,CLR,0.00,VWS V14.01,2013-01-23 17:05:00,
2013-01-23 09:10:00,50.7,38.2,30.03,NNE,20,0.0,0.0,62,0.00,,CLR,0.00,VWS V14.01,2013-01-23 17:10:00,
2013-01-23 09:15:00,50.8,38.3,30.04,NNE,20,0.0,0.0,62,0.00,,CLR,0.00,VWS V14.01,2013-01-23 17:15:00,
2013-01-23 09:20:00,50.9,38.8,30.03,NNE,20,0.0,0.0,63,0.00,,CLR,0.00,VWS V14.01,2013-01-23 17:20:00,
2013-01-23 09:25:00,50.8,38.7,30.03,NNE,20,0.0,0.0,63,0.00,,CLR,0.00,VWS V14.01,2013-01-23 17:25:00,
2013-01-23 09:31:00,50.9,38.4,30.04,NNW,343,0.0,1.0,62,0.00,,CLR,0.00,VWS V14.01,2013-01-23 17:31:00,
2013-01-23 09:36:00,50.9,39.2,30.03,NNW,328,0.0,1.0,64,0.00,,CLR,0.00,VWS V14.01,2013-01-23 17:36:00,
2013-01-23 09:41:00,51.0,38.9,30.04,NNW,329,0.0,1.0,63,0.00,,CLR,0.00,VWS V14.01,2013-01-23 17:41:00,
2013-01-23 09:46:00,51.1,39.0,30.03,North,353,0.0,1.0,63,0.00,,CLR,0.00,VWS V14.01,2013-01-23 17:46:00,
2013-01-23 09:51:00,51.2,39.0,30.04,NNE,27,0.0,1.0,63,0.00,,CLR,0.00,VWS V14.01,2013-01-23 17:51:00,
2013-01-23 09:56:00,51.3,39.2,30.05,NNE,27,0.0,1.0,63,0.00,,CLR,0.00,VWS V14.01,2013-01-23 17:56:00,
2013-01-23 10:01:00,51.3,39.5,30.05,NE,35,0.0,2.0,64,0.00,,CLR,0.00,VWS V14.01,2013-01-23 18:01:00,
2013-01-23 10:06:00,51.3,39.2,30.05,NE,38,1.0,2.0,63,0.00,,CLR,0.00,VWS V14.01,2013-01-23 18:06:00,
2013-01-23 10:11:00,51.4,39.2,30.06,NNE,21,0.0,3.0,63,0.00,,CLR,0.00,VWS V14.01,2013-01-23 18:11:00,
2013-01-23 10:16:00,51.6,39.4,30.06,NNE,21,0.0,3.0,63,0.00,,CLR,0.00,VWS V14.01,2013-01-23 18:16:00,
2013-01-23 10:21:00,51.8,39.6,30.06,NNE,21,0.0,3.0,63,0.00,,CLR,0.00,VWS V14.01,2013-01-23 18:21:00,
2013-01-23 10:26:00,52.0,40.2,30.06,NNE,21,0.0,3.0,64,0.00,,CLR,0.00,VWS V14.01,2013-01-23 18:26:00,
2013-01-23 10:31:00,52.0,39.8,30.05,NE,47,0.0,3.0,63,0.00,,CLR,0.00,VWS V14.01,2013-01-23 18:31:00,
2013-01-23 10:36:00,52.1,39.9,30.05,NNE,26,0.0,2.0,63,0.00,,CLR,0.00,VWS V14.01,2013-01-23 18:36:00,
2013-01-23 10:41:00,52.1,40.3,30.05,NNE,30,0.0,2.0,64,0.00,,CLR,0.00,VWS V14.01,2013-01-23 18:41:00,
2013-01-23 10:46:00,52.2,40.0,30.06,North,354,0.0,2.0,63,0.00,,CLR,0.00,VWS V14.01,2013-01-23 18:46:00,
2013-01-23 10:51:00,52.3,40.1,30.06,NE,34,1.0,2.0,63,0.00,,CLR,0.00,VWS V14.01,2013-01-23 18:51:00,
2013-01-23 10:56:00,52.4,39.8,30.06,NE,34,0.0,2.0,62,0.00,,CLR,0.00,VWS V14.01,2013-01-23 18:56:00,
2013-01-23 11:01:00,52.4,39.8,30.06,NE,43,0.0,2.0,62,0.00,,SCT120,0.00,VWS V14.01,2013-01-23 19:01:00,
2013-01-23 11:06:00,52.6,40.0,30.05,NE,36,0.0,4.0,62,0.00,,SCT120,0.00,VWS V14.01,2013-01-23 19:06:00,
2013-01-23 11:11:00,52.6,40.0,30.05,North,6,0.0,4.0,62,0.00,,SCT120,0.00,VWS V14.01,2013-01-23 19:11:00,
2013-01-23 11:16:00,52.6,39.5,30.05,NNE,12,1.0,4.0,61,0.00,,SCT120,0.00,VWS V14.01,2013-01-23 19:16:00,
2013-01-23 11:21:00,52.6,40.0,30.04,North,4,2.0,4.0,62,0.00,,SCT120,0.00,VWS V14.01,2013-01-23 19:21:00,
2013-01-23 11:26:00,52.6,40.8,30.06,East,89,0.0,4.0,64,0.00,,SCT120,0.00,VWS V14.01,2013-01-23 19:26:00,
2013-01-23 11:31:00,52.8,40.6,30.06,East,82,0.0,4.0,63,0.00,,SCT120,0.00,VWS V14.01,2013-01-23 19:31:00,
2013-01-23 11:36:00,52.9,40.7,30.06,NNW,338,0.0,1.0,63,0.00,,SCT120,0.00,VWS V14.01,2013-01-23 19:36:00,
2013-01-23 11:41:00,53.0,40.3,30.06,NNW,339,0.0,1.0,62,0.00,,SCT120,0.00,VWS V14.01,2013-01-23 19:41:00,
2013-01-23 11:46:00,52.9,40.2,30.05,NNE,32,0.0,3.0,62,0.00,,SCT120,0.00,VWS V14.01,2013-01-23 19:46:00,
2013-01-23 11:51:00,52.8,40.2,30.05,NE,35,0.0,3.0,62,0.00,,SCT120,0.00,VWS V14.01,2013-01-23 19:51:00,
2013-01-23 11:56:00,52.8,40.6,30.05,NE,35,0.0,3.0,63,0.00,,SCT120,0.00,VWS V14.01,2013-01-23 19:56:00,
2013-01-23 12:01:00,53.1,41.3,30.06,NE,35,0.0,3.0,64,0.00,,OVC095,0.00,VWS V14.01,2013-01-23 20:01:00,
2013-01-23 12:06:00,53.2,41.0,30.05,NNE,20,0.0,1.0,63,0.00,,OVC095,0.00,VWS V14.01,2013-01-23 20:06:00,
2013-01-23 12:11:00,53.2,41.0,30.05,NNE,15,0.0,1.0,63,0.00,,OVC095,0.00,VWS V14.01,2013-01-23 20:11:00,
2013-01-23 12:16:00,53.0,41.2,30.05,NNE,18,0.0,1.0,64,0.00,,OVC095,0.00,VWS V14.01,2013-01-23 20:16:00,
2013-01-23 12:21:00,52.9,41.1,30.04,NNE,24,0.0,1.0,64,0.00,,OVC095,0.00,VWS V14.01,2013-01-23 20:21:00,
2013-01-23 12:26:00,52.9,41.5,30.04,NNE,25,0.0,1.0,65,0.00,,OVC095,0.00,VWS V14.01,2013-01-23 20:26:00,
2013-01-23 12:31:00,52.8,41.0,30.04,NE,35,0.0,0.0,64,0.00,,OVC095,0.00,VWS V14.01,2013-01-23 20:31:00,
2013-01-23 12:36:00,52.7,40.9,30.04,NNW,340,0.0,2.0,64,0.00,,OVC095,0.00,VWS V14.01,2013-01-23 20:36:00,
2013-01-23 12:41:00,52.8,42.2,30.04,ESE,105,0.0,2.0,67,0.00,,OVC095,0.00,VWS V14.01,2013-01-23 20:41:00,
2013-01-23 12:46:00,52.8,42.2,30.04,East,87,0.0,2.0,67,0.00,,OVC095,0.00,VWS V14.01,2013-01-23 20:46:00,
2013-01-23 12:51:00,52.8,42.2,30.04,NE,34,0.0,2.0,67,0.00,,OVC095,0.00,VWS V14.01,2013-01-23 20:51:00,
2013-01-23 12:56:00,52.6,42.0,30.04,NNE,15,2.0,3.0,67,0.00,,OVC095,0.00,VWS V14.01,2013-01-23 20:56:00,
2013-01-23 13:01:00,52.4,42.9,30.04,NE,51,0.0,0.0,70,0.00,,OVC095,0.00,VWS V14.01,2013-01-23 21:01:00,
2013-01-23 13:06:00,52.1,42.6,30.04,North,10,2.0,2.0,70,0.00,,OVC095,0.00,VWS V14.01,2013-01-23 21:06:00,
2013-01-23 13:11:00,51.9,44.2,30.04,NNE,25,0.0,2.0,75,0.00,,OVC095,0.00,VWS V14.01,2013-01-23 21:11:00,
2013-01-23 13:16:00,51.8,43.4,30.04,NNE,32,0.0,2.0,73,0.00,,OVC095,0.00,VWS V14.01,2013-01-23 21:16:00,
2013-01-23 13:21:00,51.6,43.2,30.04,NNE,27,2.0,2.0,73,0.00,,OVC095,0.00,VWS V14.01,2013-01-23 21:21:00,
2013-01-23 13:26:00,51.5,43.5,30.04,NNW,342,0.0,3.0,74,0.00,,OVC095,0.00,VWS V14.01,2013-01-23 21:26:00,
2013-01-23 13:31:00,51.5,43.8,30.05,NNW,343,0.0,0.0,75,0.00,,OVC095,0.00,VWS V14.01,2013-01-23 21:31:00,
2013-01-23 13:36:00,51.4,43.8,30.05,North,353,0.0,0.0,75,0.00,,OVC095,0.00,VWS V14.01,2013-01-23 21:36:00,
2013-01-23 13:41:00,51.2,43.2,30.04,NNE,13,0.0,1.0,74,0.00,,OVC095,0.00,VWS V14.01,2013-01-23 21:41:00,
2013-01-23 13:46:00,51.0,44.7,30.04,WNW,284,1.0,1.0,79,0.01,,OVC095,0.01,VWS V14.01,2013-01-23 21:46:00,
2013-01-23 13:51:00,50.6,45.0,30.03,WNW,298,0.0,2.0,81,0.02,,OVC095,0.02,VWS V14.01,2013-01-23 21:51:00,
2013-01-23 13:56:00,50.4,45.4,30.03,West,266,0.0,2.0,83,0.02,,OVC095,0.02,VWS V14.01,2013-01-23 21:56:00,
2013-01-23 14:01:00,50.1,45.8,30.04,ESE,110,0.0,0.0,85,0.03,,RA,0.03,VWS V14.01,2013-01-23 22:01:00,
2013-01-23 14:06:00,49.9,46.2,30.04,ESE,108,0.0,1.0,87,0.03,,RA,0.03,VWS V14.01,2013-01-23 22:06:00,
2013-01-23 14:11:00,49.7,46.0,30.04,ESE,103,0.0,1.0,87,0.04,,RA,0.04,VWS V14.01,2013-01-23 22:11:00,
2013-01-23 14:16:00,49.5,46.1,30.04,ENE,70,0.0,1.0,88,0.05,,RA,0.05,VWS V14.01,2013-01-23 22:16:00,
2013-01-23 14:21:00,49.5,46.1,30.05,ENE,71,0.0,1.0,88,0.05,,RA,0.05,VWS V14.01,2013-01-23 22:21:00,
2013-01-23 14:26:00,49.3,46.5,30.04,NNE,32,0.0,1.0,90,0.05,,RA,0.05,VWS V14.01,2013-01-23 22:26:00,
2013-01-23 14:31:00,49.2,46.1,30.04,NNE,32,0.0,0.0,89,0.06,,RA,0.06,VWS V14.01,2013-01-23 22:31:00,
2013-01-23 14:36:00,49.2,46.1,30.04,WNW,291,0.0,1.0,89,0.06,,RA,0.06,VWS V14.01,2013-01-23 22:36:00,
2013-01-23 14:41:00,49.2,46.1,30.04,WNW,290,0.0,1.0,89,0.06,,RA,0.06,VWS V14.01,2013-01-23 22:41:00,
2013-01-23 14:46:00,49.2,46.4,30.04,WNW,290,0.0,1.0,90,0.07,,RA,0.07,VWS V14.01,2013-01-23 22:46:00,
2013-01-23 14:51:00,49.1,46.3,30.04,NW,323,0.0,1.0,90,0.07,,RA,0.07,VWS V14.01,2013-01-23 22:51:00,
2013-01-23 14:56:00,49.0,46.2,30.03,North,5,0.0,1.0,90,0.07,,RA,0.07,VWS V14.01,2013-01-23 22:56:00,
2013-01-23 15:01:00,48.9,45.8,30.03,NNE,25,2.0,2.0,89,0.04,,-RA,0.07,VWS V14.01,2013-01-23 23:01:00,
2013-01-23 15:06:00,48.9,46.1,30.03,North,360,0.0,2.0,90,0.04,,-RA,0.07,VWS V14.01,2013-01-23 23:06:00,
2013-01-23 15:11:00,48.8,46.0,30.03,NNW,337,0.0,2.0,90,0.04,,-RA,0.07,VWS V14.01,2013-01-23 23:11:00,
2013-01-23 15:16:00,48.7,45.6,30.03,West,278,0.0,2.0,89,0.04,,-RA,0.07,VWS V14.01,2013-01-23 23:16:00,
2013-01-23 15:22:00,48.7,45.6,30.03,NNE,25,0.0,2.0,89,0.04,,-RA,0.07,VWS V14.01,2013-01-23 23:22:00,
2013-01-23 15:27:00,48.6,45.8,30.04,West,281,0.0,2.0,90,0.04,,-RA,0.07,VWS V14.01,2013-01-23 23:27:00,
2013-01-23 15:32:00,48.6,45.8,30.04,NNE,16,0.0,1.0,90,0.01,,-RA,0.07,VWS V14.01,2013-01-23 23:32:00,
2013-01-23 15:37:00,48.7,45.9,30.04,NE,49,0.0,2.0,90,0.01,,-RA,0.07,VWS V14.01,2013-01-23 23:37:00,
2013-01-23 15:42:00,48.8,46.3,30.04,WNW,284,0.0,2.0,91,0.01,,-RA,0.07,VWS V14.01,2013-01-23 23:42:00,
2013-01-23 15:47:00,48.9,46.7,30.04,North,8,0.0,2.0,92,0.01,,-RA,0.07,VWS V14.01,2013-01-23 23:47:00,
2013-01-23 15:52:00,49.0,46.8,30.05,North,358,0.0,2.0,92,0.01,,-RA,0.07,VWS V14.01,2013-01-23 23:52:00,
2013-01-23 15:57:00,49.1,47.2,30.04,NNE,18,0.0,2.0,93,0.01,,-RA,0.07,VWS V14.01,2013-01-23 23:57:00,
2013-01-23 16:02:00,49.1,47.2,30.05,NE,37,0.0,0.0,93,0.00,,,0.07,VWS V14.01,2013-01-24 00:02:00,
2013-01-23 16:07:00,49.0,47.1,30.06,NNE,30,0.0,0.0,93,0.00,,,0.07,VWS V14.01,2013-01-24 00:07:00,
2013-01-23 16:12:00,48.9,46.4,30.06,NNE,13,0.0,0.0,91,0.01,,,0.08,VWS V14.01,2013-01-24 00:12:00,
2013-01-23 16:17:00,49.1,46.9,30.06,West,259,0.0,2.0,92,0.01,,,0.08,VWS V14.01,2013-01-24 00:17:00,
2013-01-23 16:22:00,49.2,47.0,30.06,WSW,248,1.0,2.0,92,0.01,,,0.08,VWS V14.01,2013-01-24 00:22:00,
2013-01-23 16:27:00,49.3,47.4,30.06,SSW,201,0.0,2.0,93,0.01,,,0.08,VWS V14.01,2013-01-24 00:27:00,
2013-01-23 16:32:00,49.3,47.4,30.05,SSW,203,0.0,0.0,93,0.01,,,0.08,VWS V14.01,2013-01-24 00:32:00,
2013-01-23 16:37:00,49.4,47.5,30.06,SSW,203,0.0,0.0,93,0.01,,,0.08,VWS V14.01,2013-01-24 00:37:00,
2013-01-23 16:42:00,49.3,47.4,30.06,ENE,68,0.0,1.0,93,0.01,,,0.08,VWS V14.01,2013-01-24 00:42:00,
2013-01-23 16:47:00,49.2,47.3,30.05,ENE,61,0.0,1.0,93,0.01,,,0.08,VWS V14.01,2013-01-24 00:47:00,
2013-01-23 16:52:00,49.1,47.2,30.06,NE,52,0.0,1.0,93,0.01,,,0.08,VWS V14.01,2013-01-24 00:52:00,
2013-01-23 16:57:00,48.7,46.5,30.06,North,356,0.0,3.0,92,0.01,,,0.08,VWS V14.01,2013-01-24 00:57:00,
2013-01-23 17:02:00,48.6,46.4,30.06,NNE,30,0.0,1.0,92,0.01,,,0.08,VWS V14.01,2013-01-24 01:02:00,
2013-01-23 17:07:00,48.4,46.2,30.05,NNW,347,1.0,2.0,92,0.01,,,0.08,VWS V14.01,2013-01-24 01:07:00,
2013-01-23 17:12:00,48.2,46.0,30.05,NE,35,2.0,3.0,92,0.01,,,0.08,VWS V14.01,2013-01-24 01:12:00,
2013-01-23 17:17:00,48.1,45.9,30.05,NNE,18,1.0,4.0,92,0.01,,,0.08,VWS V14.01,2013-01-24 01:17:00,
2013-01-23 17:22:00,48.0,46.1,30.05,NW,309,1.0,4.0,93,0.01,,,0.08,VWS V14.01,2013-01-24 01:22:00,
2013-01-23 17:27:00,48.0,46.1,30.06,NW,304,0.0,4.0,93,0.02,,,0.09,VWS V14.01,2013-01-24 01:27:00,
2013-01-23 17:32:00,47.9,46.3,30.07,ENE,72,0.0,0.0,94,0.01,,,0.09,VWS V14.01,2013-01-24 01:32:00,
2013-01-23 17:37:00,47.9,46.3,30.07,North,9,0.0,1.0,94,0.01,,,0.09,VWS V14.01,2013-01-24 01:37:00,
2013-01-23 17:42:00,47.9,46.3,30.07,WNW,302,0.0,2.0,94,0.01,,,0.09,VWS V14.01,2013-01-24 01:42:00,
2013-01-23 17:47:00,47.9,46.3,30.07,NNE,12,0.0,2.0,94,0.01,,,0.09,VWS V14.01,2013-01-24 01:47:00,
2013-01-23 17:52:00,47.8,46.2,30.07,North,8,2.0,2.0,94,0.01,,,0.09,VWS V14.01,2013-01-24 01:52:00,
2013-01-23 17:57:00,47.8,46.2,30.07,WNW,288,0.0,4.0,94,0.02,,,0.10,VWS V14.01,2013-01-24 01:57:00,
2013-01-23 18:02:00,47.8,46.2,30.07,WNW,289,0.0,2.0,94,0.02,,-RA,0.10,VWS V14.01,2013-01-24 02:02:00,
2013-01-23 18:07:00,47.7,46.1,30.07,NNW,343,1.0,3.0,94,0.02,,-RA,0.10,VWS V14.01,2013-01-24 02:07:00,
2013-01-23 18:12:00,47.7,46.1,30.06,North,355,2.0,4.0,94,0.02,,-RA,0.10,VWS V14.01,2013-01-24 02:12:00,
2013-01-23 18:17:00,47.7,46.1,30.07,NNE,15,3.0,5.0,94,0.02,,-RA,0.10,VWS V14.01,2013-01-24 02:17:00,
2013-01-23 18:22:00,47.7,46.1,30.07,NNE,15,3.0,6.0,94,0.03,,-RA,0.11,VWS V14.01,2013-01-24 02:22:00,
2013-01-23 18:27:00,47.7,46.1,30.08,NNE,18,4.0,6.0,94,0.03,,-RA,0.11,VWS V14.01,2013-01-24 02:27:00,
2013-01-23 18:32:00,47.6,46.0,30.07,NE,39,2.0,7.0,94,0.02,,-RA,0.11,VWS V14.01,2013-01-24 02:32:00,
2013-01-23 18:37:00,47.5,45.9,30.08,North,350,1.0,7.0,94,0.02,,-RA,0.11,VWS V14.01,2013-01-24 02:37:00,
2013-01-23 18:42:00,47.5,45.9,30.07,NNE,30,2.0,7.0,94,0.02,,-RA,0.11,VWS V14.01,2013-01-24 02:42:00,
2013-01-23 18:47:00,47.4,45.8,30.08,NNE,14,0.0,7.0,94,0.03,,-RA,0.12,VWS V14.01,2013-01-24 02:47:00,
2013-01-23 18:52:00,47.4,45.8,30.09,NNE,21,1.0,7.0,94,0.03,,-RA,0.12,VWS V14.01,2013-01-24 02:52:00,
2013-01-23 18:57:00,47.3,45.7,30.09,NNW,340,0.0,7.0,94,0.03,,-RA,0.12,VWS V14.01,2013-01-24 02:57:00,
2013-01-23 19:02:00,47.3,45.7,30.08,NNE,18,2.0,3.0,94,0.02,,-RA,0.12,VWS V14.01,2013-01-24 03:02:00,
2013-01-23 19:07:00,47.2,45.8,30.08,North,355,2.0,5.0,95,0.02,,-RA,0.12,VWS V14.01,2013-01-24 03:07:00,
2013-01-23 19:12:00,47.1,45.5,30.08,NE,34,4.0,5.0,94,0.02,,-RA,0.12,VWS V14.01,2013-01-24 03:12:00,
2013-01-23 19:17:00,47.0,45.4,30.08,NNE,23,2.0,7.0,94,0.03,,-RA,0.13,VWS V14.01,2013-01-24 03:17:00,
2013-01-23 19:22:00,47.0,45.4,30.07,NNE,28,3.0,7.0,94,0.03,,-RA,0.13,VWS V14.01,2013-01-24 03:22:00,
2013-01-23 19:27:00,46.9,45.3,30.07,NNW,333,3.0,10.0,94,0.03,,-RA,0.13,VWS V14.01,2013-01-24 03:27:00,
2013-01-23 19:32:00,46.9,45.3,30.07,WNW,288,1.0,5.0,94,0.02,,-RA,0.13,VWS V14.01,2013-01-24 03:32:00,
2013-01-23 19:37:00,46.9,45.3,30.07,NNE,20,2.0,7.0,94,0.02,,-RA,0.13,VWS V14.01,2013-01-24 03:37:00,
2013-01-23 19:42:00,46.9,45.3,30.07,NNE,30,4.0,7.0,94,0.02,,-RA,0.13,VWS V14.01,2013-01-24 03:42:00,
2013-01-23 19:47:00,46.8,45.2,30.07,NNW,334,5.0,7.0,94,0.02,,-RA,0.13,VWS V14.01,2013-01-24 03:47:00,
2013-01-23 19:52:00,46.8,45.2,30.07,NNW,347,5.0,7.0,94,0.02,,-RA,0.13,VWS V14.01,2013-01-24 03:52:00,
2013-01-23 19:57:00,46.8,45.2,30.06,NNE,20,5.0,7.0,94,0.02,,-RA,0.13,VWS V14.01,2013-01-24 03:57:00,
2013-01-23 20:02:00,46.8,45.2,30.06,NE,39,3.0,6.0,94,0.01,,-RA,0.13,VWS V14.01,2013-01-24 04:02:00,
2013-01-23 20:07:00,46.9,45.3,30.07,North,355,5.0,6.0,94,0.01,,-RA,0.13,VWS V14.01,2013-01-24 04:07:00,
2013-01-23 20:12:00,46.9,45.3,30.06,North,5,5.0,9.0,94,0.02,,-RA,0.14,VWS V14.01,2013-01-24 04:12:00,
2013-01-23 20:17:00,47.0,45.4,30.07,North,8,3.0,9.0,94,0.02,,-RA,0.14,VWS V14.01,2013-01-24 04:17:00,
2013-01-23 20:23:00,47.0,45.7,30.07,NNE,21,3.0,9.0,95,0.02,,-RA,0.14,VWS V14.01,2013-01-24 04:23:00,
2013-01-23 20:27:00,47.0,45.7,30.07,NNW,345,5.0,12.0,95,0.02,,-RA,0.14,VWS V14.01,2013-01-24 04:27:00,
2013-01-23 20:32:00,47.0,45.7,30.08,NNE,30,2.0,6.0,95,0.01,,-RA,0.14,VWS V14.01,2013-01-24 04:32:00,
2013-01-23 20:37:00,47.0,45.7,30.08,NNE,12,7.0,7.0,95,0.01,,-RA,0.14,VWS V14.01,2013-01-24 04:37:00,
2013-01-23 20:42:00,47.1,45.7,30.07,NNE,15,2.0,7.0,95,0.01,,-RA,0.14,VWS V14.01,2013-01-24 04:42:00,
2013-01-23 20:47:00,47.2,45.8,30.08,NNE,27,0.0,7.0,95,0.01,,-RA,0.14,VWS V14.01,2013-01-24 04:47:00,
2013-01-23 20:53:00,47.3,45.9,30.08,NNW,348,2.0,7.0,95,0.01,,-RA,0.14,VWS V14.01,2013-01-24 04:53:00,
2013-01-23 20:58:00,47.3,45.9,30.09,NNE,30,1.0,7.0,95,0.01,,-RA,0.14,VWS V14.01,2013-01-24 04:58:00,
2013-01-23 21:00:00,47.3,45.9,30.09,NNE,28,3.0,7.0,95,0.01,,-RA,0.14,VWS V14.01,2013-01-24 05:00:00,
2013-01-23 21:01:00,47.3,45.9,30.09,NNE,30,0.0,7.0,95,0.01,,-RA,0.14,VWS V14.01,2013-01-24 05:01:00,
2013-01-23 21:02:00,47.3,45.9,30.10,South,181,1.0,1.0,95,0.01,,-RA,0.14,VWS V14.01,2013-01-24 05:02:00,
2013-01-23 21:07:00,47.4,46.3,30.12,ESE,112,4.0,5.0,96,0.02,,-RA,0.15,VWS V14.01,2013-01-24 05:07:00,
2013-01-23 21:12:00,47.3,45.9,30.12,ESE,113,4.0,5.0,95,0.02,,-RA,0.15,VWS V14.01,2013-01-24 05:12:00,
2013-01-23 21:17:00,47.3,45.9,30.12,ESE,115,0.0,6.0,95,0.02,,-RA,0.15,VWS V14.01,2013-01-24 05:17:00,
2013-01-23 21:22:00,47.2,45.8,30.12,ESE,106,1.0,6.0,95,0.02,,-RA,0.15,VWS V14.01,2013-01-24 05:22:00,
2013-01-23 21:27:00,47.1,45.7,30.13,ESE,112,0.0,6.0,95,0.03,,-RA,0.16,VWS V14.01,2013-01-24 05:27:00,
2013-01-23 21:32:00,46.9,45.5,30.12,North,11,0.0,0.0,95,0.02,,-RA,0.16,VWS V14.01,2013-01-24 05:32:00,
2013-01-23 21:37:00,46.8,45.5,30.13,North,6,0.0,1.0,95,0.02,,-RA,0.16,VWS V14.01,2013-01-24 05:37:00,
2013-01-23 21:42:00,46.8,45.7,30.13,North,5,0.0,1.0,96,0.02,,-RA,0.16,VWS V14.01,2013-01-24 05:42:00,
2013-01-23 21:47:00,46.8,45.7,30.13,NNE,26,1.0,2.0,96,0.02,,-RA,0.16,VWS V14.01,2013-01-24 05:47:00,
2013-01-23 21:52:00,46.7,45.6,30.13,North,8,0.0,3.0,96,0.03,,-RA,0.17,VWS V14.01,2013-01-24 05:52:00,
2013-01-23 21:57:00,46.7,45.6,30.12,North,354,2.0,3.0,96,0.03,,-RA,0.17,VWS V14.01,2013-01-24 05:57:00,
2013-01-23 22:02:00,46.7,45.6,30.12,NE,35,1.0,3.0,96,0.03,,-RA,0.17,VWS V14.01,2013-01-24 06:02:00,
2013-01-23 22:07:00,46.7,45.6,30.11,NNE,15,3.0,6.0,96,0.03,,-RA,0.17,VWS V14.01,2013-01-24 06:07:00,
2013-01-23 22:12:00,46.7,45.6,30.11,NE,37,2.0,7.0,96,0.03,,-RA,0.17,VWS V14.01,2013-01-24 06:12:00,
2013-01-23 22:17:00,46.7,45.6,30.11,NNE,19,3.0,7.0,96,0.03,,-RA,0.17,VWS V14.01,2013-01-24 06:17:00,
2013-01-23 22:22:00,46.7,45.6,30.10,North,351,4.0,8.0,96,0.03,,-RA,0.17,VWS V14.01,2013-01-24 06:22:00,
2013-01-23 22:27:00,46.8,45.7,30.10,West,273,2.0,8.0,96,0.03,,-RA,0.17,VWS V14.01,2013-01-24 06:27:00,
2013-01-23 22:32:00,46.8,45.7,30.10,NNE,30,4.0,7.0,96,0.02,,-RA,0.18,VWS V14.01,2013-01-24 06:32:00,
2013-01-23 22:37:00,47.0,45.9,30.10,North,5,2.0,7.0,96,0.02,,-RA,0.18,VWS V14.01,2013-01-24 06:37:00,
2013-01-23 22:42:00,47.1,46.0,30.10,North,8,5.0,7.0,96,0.02,,-RA,0.18,VWS V14.01,2013-01-24 06:42:00,
2013-01-23 22:47:00,47.2,46.1,30.10,WNW,301,4.0,8.0,96,0.02,,-RA,0.18,VWS V14.01,2013-01-24 06:47:00,
2013-01-23 22:52:00,47.2,46.1,30.10,North,5,6.0,9.0,96,0.02,,-RA,0.18,VWS V14.01,2013-01-24 06:52:00,
2013-01-23 22:57:00,47.3,45.9,30.10,NW,312,5.0,9.0,95,0.02,,-RA,0.18,VWS V14.01,2013-01-24 06:57:00,
2013-01-23 23:02:00,47.3,45.9,30.10,West,267,5.0,6.0,95,0.01,,-RA,0.18,VWS V14.01,2013-01-24 07:02:00,
2013-01-23 23:07:00,47.3,45.9,30.10,NE,40,4.0,10.0,95,0.01,,-RA,0.18,VWS V14.01,2013-01-24 07:07:00,
2013-01-23 23:12:00,47.3,45.9,30.10,NNE,13,3.0,10.0,95,0.01,,-RA,0.18,VWS V14.01,2013-01-24 07:12:00,
2013-01-23 23:18:00,47.4,46.0,30.10,NNE,21,9.0,10.0,95,0.01,,-RA,0.18,VWS V14.01,2013-01-24 07:18:00,
2013-01-23 23:23:00,47.4,46.0,30.10,NNE,21,3.0,10.0,95,0.01,,-RA,0.18,VWS V14.01,2013-01-24 07:23:00,
2013-01-23 23:28:00,47.5,46.1,30.10,NNE,15,4.0,10.0,95,0.02,,-RA,0.19,VWS V14.01,2013-01-24 07:28:00,
2013-01-23 23:32:00,47.6,46.2,30.10,North,349,2.0,8.0,95,0.02,,-RA,0.19,VWS V14.01,2013-01-24 07:32:00,
2013-01-23 23:37:00,47.7,46.3,30.10,NNE,28,3.0,8.0,95,0.02,,-RA,0.19,VWS V14.01,2013-01-24 07:37:00,
2013-01-23 23:43:00,47.8,46.4,30.10,NNE,21,6.0,8.0,95,0.02,,-RA,0.19,VWS V14.01,2013-01-24 07:43:00,
2013-01-23 23:47:00,48.0,46.6,30.09,ENE,57,4.0,8.0,95,0.02,,-RA,0.19,VWS V14.01,2013-01-24 07:47:00,
2013-01-23 23:52:00,48.2,46.8,30.09,NNE,22,8.0,10.0,95,0.02,,-RA,0.19,VWS V14.01,2013-01-24 07:52:00,
2013-01-23 23:58:00,48.3,46.9,30.09,North,4,4.0,10.0,95,0.02,,-RA,0.19,VWS V14.01,2013-01-24 07:58:00,